Location: Vancouver
(49.2500°N, 123.1330°W)
Time: 02:27:05
(UTC-07:00)

Iridium 21 - Visible Passes

Search period start: 31 July 2014 00:00
Search period end: 10 August 2014 00:00
Orbit: 776 x 779 km, 86.4° (Epoch: 30 July)

Date Brightness Start Highest point End Pass type
(mag) Time Alt. Az. Time Alt. Az. Time Alt. Az.
31 Jul 6.7 00:07:47 26° ESE 00:09:08 30° E 00:13:36 10° NNE visible
31 Jul 6.3 01:48:16 34° WSW 01:49:42 41° W 01:54:38 10° N visible
31 Jul 7.3 23:34:22 16° E 23:35:55 18° ENE 23:39:19 10° NE visible
01 Aug 5.6 01:14:51 52° SSW 01:16:02 71° W 01:21:16 10° N visible
01 Aug 7.8 02:56:19 10° W 02:57:48 11° WNW 02:59:18 10° NW visible
01 Aug 7.8 23:02:10 10° ENE 23:02:49 10° ENE 23:03:28 10° ENE visible
02 Aug 5.5 00:41:25 53° SSE 00:42:31 69° E 00:47:42 10° N visible
02 Aug 7.4 02:21:53 16° W 02:23:48 19° WNW 02:27:26 10° NNW visible
03 Aug 6.2 00:07:59 36° ESE 00:09:06 40° E 00:13:57 10° NNE visible
03 Aug 6.8 01:48:28 26° WSW 01:49:56 30° WNW 01:54:32 10° NNW visible
03 Aug 6.9 23:34:33 22° E 23:35:49 24° E 23:39:56 10° NNE visible
04 Aug 6.0 01:15:01 43° WSW 01:16:12 51° W 01:21:18 10° N visible
04 Aug 7.4 23:01:07 13° E 23:02:38 15° ENE 23:05:23 10° NE visible
05 Aug 5.4 00:41:35 59° S 00:42:36 86° W 00:47:51 10° N visible
05 Aug 7.7 02:22:03 11° W 02:24:10 14° WNW 02:26:48 10° NW visible
06 Aug 5.7 00:08:08 48° SE 00:09:07 56° E 00:14:13 10° NNE visible
06 Aug 7.2 01:48:36 20° W 01:50:13 23° WNW 01:54:18 10° NNW visible
06 Aug 6.4 23:34:41 30° ESE 23:35:45 33° E 23:40:22 10° NNE visible
07 Aug 6.5 01:15:09 32° WSW 01:16:24 37° WNW 01:21:15 10° N visible
07 Aug 7.1 23:01:14 18° E 23:02:30 20° ENE 23:06:11 10° NNE visible
08 Aug 5.7 00:41:42 52° SW 00:42:43 63° W 00:47:55 10° N visible
08 Aug 7.6 22:27:46 10° E 22:29:23 12° ENE 22:31:06 10° NE visible
09 Aug 5.4 00:08:14 59° SSE 00:09:10 77° E 00:14:23 10° N visible
09 Aug 7.6 01:48:42 14° W 01:50:33 17° WNW 01:53:53 10° NNW visible
09 Aug 6.0 23:34:45 40° ESE 23:35:43 45° E 23:40:40 10° NNE visible
